Weather in Privolie

Ukraine / Kherson District     46°09′43″N   33°20′57″E
temp.,
°C
wind,
m/s
gust,
m/s
humid.,
%
clouds,
%
prec.,
mm/h
press.,
hPa
HPBL,
m
17 june, thu
thu1700:00+17nw4879100 0.0 1011146
03:00+17nw51074100 0.0 1011199
06:00+16n51295100 4.1 1010568
09:00+17nnw101695100 20.8 1007988
12:00+22ne81382100 6.1 10071034
15:00+26nne91163100 7.6 10061725
18:00+22ne91374100 0.8 10071122
21:00+19ne91486100 0.8 1008699
18 june, fri
fri1800:00+18ese7128693 0.1 1010654
03:00+18ne71182100 0.1 1010507
06:00+18e6118431 0.0 1011550
09:00+20ese10137583 0.1 10121094
12:00+19e11147892 0.4 1013881
15:00+22ese121472100 0.7 10131234
18:00+20ese9148290 0.3 10141002
21:00+19ese61482100 0.4 1015665
19 june, sat
sat1900:00+19e5108597 0.2 1015404
03:00+18ene389095 0.5 1015248
06:00+18ene479718 1.2 1015211
09:00+23e57735 1.3 1015679
12:00+27e56543 0.0 10151367
15:00+29e66476 0.0 10131705
18:00+26ese56585 0.0 1013625
21:00+22e228244 0.5 101324
20 june, sun
sun2000:00+20nne4108290 0.8 1012243
03:00+19ne61288100 3.1 1011335
06:00+19ne61285100 1.6 1011397
09:00+23ene710695 1.7 1010668
12:00+24e6875100 0.9 1011715
15:00+25e777396 1.3 1010655
18:00+25ese79671 1.4 1011622
21:00+20e48780 1.4 1011181
21 june, mon
mon2100:00+20ese33840 0.0 101137
03:00+19ene22884 0.0 101118
06:00+20ne2385100 0.0 101153
09:00+25nne2264100 0.0 1011433
12:00+28nne2354100 0.0 1010961
15:00+31nne1246100 0.0 10101403
18:00+29sse325796 0.1 1010485
21:00+22ne2284100 5.1 101136